Probability
0 0 0 0 0 0 0 0 0 0 0 0 0 0 0 0 0 0 0 0 0 0 0 0 0 0 0 0 0 0 0 0 0 0 0 0 0 0 0 0 0 0 0 0
0 0 0 0 0 0 0 0 0 0 0 0 0 0 0 0 0 0 0 0 0 0 0 0 0 0 0 0 0 0 0 0 0 0 0 0 0 0 0 0 0 0 0 0
0 0 0 0 0 0 0 0 0 0 0 0 0 0 0 0 0 0 0 0 0 0 0 0 0 0 0 0 0 0 0 0 0 0 0 0 0 0 0 0 0 0 0 0
0 0 0 0 0 0 0 0 0 0 0 0 0 0 0 0 0 0 0 0 0 0 0 0 0 0 0 0 0 0 0 0 0 0 0 0 0 0 0 0 0 0 0 0
0 0 0 0 0 0 0 0 0 0 0 0 0 0 0 0 0 0 0 0 0 0 0 0 0 0 0 0 0 0 0 0 0 0 0 0 0 0 0 0 0 0 0 0
0 0 0 0 0 0 0 0 0 0 0 0 0 0 0 0 0 0 0 0 0 0 0 0 0 0 0 0 0 0 0 0 0 0 0 0 0 0 0 0 0 0 0 0
0 0 0 0 0 0 0 0 0 0 0 0 0 0 0 0 0 0 0 0 0 0 0 0 0 0 0 0 0 0 0 0 0 0 0 0 0 0 0 0 0 0 0 0
0 0 0 0 0 0 0 0 0 0 0 0 0 0 0 0 0 0 0 0 0 0 0 0 0 0 0 0 0 0 0 0 0 0 0 0 0 0 0 0 0 0 0 0
0 0 0 0 0 0 0 0 0 0 0 0 0 0 0 0 0 0 0 0 0 0 0 0 0 0 0 0 0 0 0 0 0 0 0 0 0 0 0 0 0 0 0 0
0 0 0 0 0 0 0 0 0 0 0 0 0 0 0 0 0 0 0 0 0 0 0 0 0 0 0 0 0 0 0 0 0 0 0 0 0 0 0 0 0 0 0 0
0 0 0 0 0 0 0 0 0 0 0 0 0 0 0 0 0 0 0 0 0 0 0 0 0 0 0 0 0 0 0 0 0 0 0 0 0 0 0 0 0 0 0 0
0 0 0 0 0 0 0 0 0 0 0 0 0 0 0 0 0 0 0 0 0 0 0 0 0 0 0 0 0 0 0 0 0 0 0 0 0 0 0 0 0 0 0 0
0 0 0 0 0 0 0 0 0 0 0 0 0 0 0 0 0 0 0 0 0 0 0 0 0 0 0 0 0 0 0 0 0 0 0 0 0 0 0 0 0 0 0 0
0 0 0 0 0 0 0 0 0 0 0 0 0 0 0 0 0 0 0 0 0 0 0 0 0 0 0 0 0 0 0 0 0 0 0 0 0 0 0 0 0 0 0 0
0 0 0 0 0 0 0 0 0 0 0 0 0 0 0 0 0 0 0 0 0 0 0 0 0 0 0 0 0 0 0 0 0 0 0 0 0 0 0 0 0 0 0 0
0 0 0 0 0 0 0 0 0 0 0 0 0 0 0 0 0 0 0 0 0 0 0 0 0 0 0 0 0 0 0 0 0 0 0 0 0 0 0 0 0 0 0 0
0 0 0 0 0 0 0 0 0 0 0 0 0 0 0 0 0 0 0 0 0 0 0 0 0 0 0 0 0 0 0 0 0 0 0 0 0 0 0 0 0 0 0 0
0 0 0 0 0 0 0 0 0 0 0 0 0 0 0 0 0 0 0 0 0 0 0 0 0 0 0 0 0 0 0 0 0 0 0 0 0 0 0 0 0 0 0 0
0 0 0 0 0 0 0 0 0 0 0 0 0 0 0 0 0 0 0 0 0 0 0 0 0 0 0 0 0 0 0 0 0 0 0 0 0 0 0 0 0 0 0 0
0 0 0 0 0 0 0 0 0 0 0 0 0 0 0 0 0 0 0 0 0 0 0 0 0 0 0 0 0 0 0 0 0 0 0 0 0 0 0 0 0 0 0 0
0 0 0 0 0 0 0 0 0 0 0 0 0 0 0 0 0 0 0 0 0 0 0 0 0 0 0 0 0 0 0 0 0 0 0 0 0 0 0 0 0 0 0 0
0 0 0 0 0 0 0 0 0 0 0 0 0 0 0 0 0 0 0 0 0 0 0 0 0 0 0 0 0 0 0 0 0 0 0 0 0 0 0 0 0 0 0 0
0 0 0 0 0 0 0 0 0 0 0 0 0 0 0 0 0 0 0 0 0 0 0 0 0 0 0 0 0 0 0 0 0 0 0 0 0 0 0 0 0 0 0 0
0 0 0 0 0 0 0 0 0 0 0 0 0 0 0 0 0 0 0 0 0 0 0 0 0 0 0 0 0 0 0 0 0 0 0 0 0 0 0 0 0 0 0 0
0 0 0 0 0 0 0 0 0 0 0 0 0 0 0 0 0 0 0 0 0 0 0 0 0 0 0 0 0 0 0 0 0 0 0 0 0 0 0 0 0 0 0 0
0 0 0 0 0 0 0 0 0 0 0 0 0 0 0 0 0 0 0 0 0 0 0 0 0 0 0 0 0 0 0 0 0 0 0 0 0 0 0 0 0 0 0 0
Wind_Speed
1 6 8 8 8 10 10 12 17 17 7 7 17 25 28 24 18 20 20 19 19 19 17 14 16 18 18 19 20 21 21 21 18 15 14 14 14 12 12 12 15 16 15 16
5 10 9 5 3 6 9 12 16 12 1 7 16 26 26 18 14 13 15 15 16 16 14 13 14 16 19 21 21 21 22 21 21 16 14 12 12 12 13 12 14 17 17 17
10 4 2 3 4 6 9 11 12 12 11 7 11 16 10 6 6 8 8 10 11 11 12 12 14 16 18 20 22 19 22 22 22 19 13 11 10 9 11 14 14 17 18 18
8 4 3 6 7 7 9 5 8 8 9 7 6 11 13 8 9 8 9 6 5 5 7 8 10 14 17 18 17 19 20 21 20 20 18 20 16 17 17 14 13 16 19 19
6 2 4 6 5 5 5 2 4 5 7 8 4 7 11 7 9 14 13 12 9 6 4 5 8 11 13 14 15 16 18 19 20 21 21 21 20 17 13 14 16 17 17 20
7 1 3 3 1 2 2 4 3 2 4 6 1 5 9 5 8 13 14 13 12 10 7 5 5 7 10 11 13 15 17 19 20 21 22 24 24 21 19 18 16 15 13 15
3 3 2 2 3 3 4 6 5 4 3 2 2 6 12 8 8 9 12 12 12 11 10 9 7 5 7 10 13 15 17 19 20 22 23 24 24 23 23 20 18 16 14 14
5 2 3 3 3 3 2 5 5 6 6 6 3 8 10 9 8 7 6 7 10 12 12 12 10 7 6 8 11 14 17 18 19 20 21 21 22 17 16 20 17 17 14 15
4 4 2 0 1 3 3 3 3 6 6 7 7 7 13 7 2 2 7 10 13 14 14 13 12 9 7 6 8 11 14 15 16 18 19 19 20 20 19 17 18 16 15 13
3 6 1 1 2 1 3 1 4 5 6 7 7 7 8 9 10 11 12 14 15 15 15 14 12 10 8 7 6 7 10 12 13 15 16 14 17 19 18 17 19 18 18 17
4 6 3 3 6 5 5 5 6 5 6 7 9 8 6 11 12 12 13 15 15 14 14 12 11 10 9 8 6 5 7 9 10 12 14 15 16 16 17 18 19 18 17 18
3 5 6 5 2 1 5 6 7 6 8 8 10 12 8 10 8 9 13 14 13 12 11 10 11 11 10 9 8 6 6 7 8 9 11 14 14 15 17 18 18 17 18 18
5 5 6 5 4 4 6 6 8 7 7 10 12 15 3 7 12 14 14 13 11 10 10 11 12 12 12 11 10 8 7 7 7 8 10 12 13 15 16 17 16 17 17 17
5 7 11 13 13 8 9 9 9 11 12 16 21 26 24 24 20 16 13 10 9 9 10 12 13 13 13 12 11 10 9 8 7 8 10 12 13 14 15 15 15 16 16 17
6 8 12 17 17 15 16 19 18 20 21 23 28 28 28 21 15 11 10 9 9 11 12 14 14 15 15 14 13 12 11 10 8 9 10 12 12 12 12 13 14 14 16 17
5 7 7 14 16 17 21 24 27 26 25 27 28 27 16 8 8 10 11 10 10 12 15 16 16 16 16 15 14 13 13 11 10 10 11 11 11 11 12 13 13 14 15 16
6 7 9 14 9 10 17 18 20 16 15 15 17 11 7 10 12 13 13 11 11 14 16 17 16 15 15 14 13 13 13 12 11 10 11 11 11 11 12 12 13 14 15 16
9 7 7 8 7 14 10 2 7 12 14 14 14 11 11 12 12 13 11 10 14 17 17 16 15 15 14 14 12 12 12 12 11 11 11 10 10 12 12 12 14 14 13 14
10 9 7 5 10 15 11 6 4 6 8 4 3 7 11 12 13 11 7 10 15 16 15 14 14 14 14 13 12 11 12 11 9 10 11 11 10 12 12 13 14 13 13 14
4 8 7 6 7 10 6 3 0 3 6 2 4 11 15 15 15 12 14 17 16 15 13 13 13 14 14 13 12 12 13 13 12 12 13 13 12 12 13 13 13 12 12 13
6 7 9 10 10 13 6 1 3 5 4 4 11 15 16 15 15 17 18 16 14 14 14 13 13 13 13 14 13 13 14 14 14 14 14 14 13 13 13 12 11 11 11 12
7 7 8 7 10 12 3 5 5 7 9 13 16 16 16 17 18 17 15 13 13 13 13 13 13 14 14 13 13 15 16 15 15 15 15 15 14 11 10 11 11 10 11 12
8 8 5 10 11 7 3 8 10 11 15 17 16 16 17 17 17 14 13 12 12 13 13 13 14 15 15 14 14 16 16 15 15 15 15 15 14 12 10 10 10 9 9 9
7 6 10 14 16 17 16 17 17 16 17 17 17 16 15 15 14 13 11 10 12 13 14 13 15 16 16 16 15 16 16 15 15 16 15 14 13 12 10 8 8 8 9 9
10 7 12 19 20 20 16 14 15 16 17 18 16 14 12 12 11 10 10 11 12 13 13 13 14 16 18 17 17 16 15 15 15 15 14 13 11 11 10 9 8 10 10 11
16 21 20 20 20 20 21 18 18 18 16 15 14 11 9 7 9 10 11 12 13 14 14 14 15 17 18 18 18 16 15 14 15 14 13 11 10 9 9 9 9 13 15 18
Wind_Direction
235 241 250 265 262 281 287 281 285 292 303 262 272 280 285 289 279 263 259 257 250 243 238 221 210 207 205 205 205 204 203 204 201 200 204 207 211 212 213 214 212 208 206 204
241 251 276 288 251 246 257 275 286 297 308 265 292 289 287 291 286 277 273 268 260 254 242 221 209 205 205 205 205 205 205 203 203 204 204 210 214 217 216 214 216 213 209 207
253 291 93 195 232 250 260 266 290 304 313 261 303 293 292 321 313 298 285 277 274 263 251 229 214 211 208 209 208 206 206 205 205 203 203 205 212 220 215 215 215 214 212 209
259 273 235 251 259 255 281 293 278 290 304 308 340 305 305 337 339 16 18 11 336 294 262 246 224 216 214 215 211 211 210 208 206 202 206 205 207 215 217 215 215 213 212 212
264 237 236 260 276 237 285 355 279 284 286 287 262 269 291 326 1 10 14 20 18 6 327 271 240 229 223 217 213 213 213 212 209 207 210 213 221 226 225 219 219 216 212 212
266 264 256 273 355 238 262 253 221 216 244 259 245 264 290 341 355 344 352 6 12 7 357 328 275 242 230 218 213 212 214 216 212 211 213 217 223 225 225 222 218 216 214 212
264 203 192 207 231 178 235 282 281 261 246 273 109 257 263 294 324 318 323 341 355 359 358 346 326 276 241 222 215 213 215 218 214 214 216 220 224 226 228 226 222 217 215 213
294 264 178 205 254 299 243 275 301 306 301 306 242 252 269 301 308 304 315 339 355 2 357 345 333 310 274 241 223 217 218 221 216 216 220 223 225 227 231 229 225 222 221 218
264 284 113 134 256 252 224 222 323 285 278 273 261 268 287 276 245 334 1 4 0 353 347 341 335 327 307 276 241 228 226 226 222 221 223 225 225 226 230 232 230 229 226 221
262 277 239 129 169 146 299 218 201 246 279 278 267 259 259 284 311 337 348 353 350 348 343 341 340 337 328 312 287 251 239 237 232 227 225 228 228 229 231 232 231 229 227 222
229 259 247 213 222 219 178 194 225 247 264 279 285 266 252 277 309 329 336 342 344 342 340 341 341 341 337 332 317 287 260 250 242 234 231 231 232 231 231 232 233 231 229 223
207 251 265 252 108 299 241 237 217 247 256 245 278 279 269 280 309 324 328 335 338 342 344 344 344 345 347 344 335 315 287 266 255 246 240 238 238 235 233 234 234 231 229 225
169 225 274 249 191 181 225 226 226 248 273 260 263 272 267 273 299 319 330 337 343 346 349 351 351 348 347 342 336 326 309 289 275 260 250 247 242 239 238 238 236 232 230 227
199 233 245 266 284 290 255 242 224 227 252 264 259 274 287 296 314 330 339 344 345 349 350 349 345 342 340 335 332 327 320 307 289 271 260 256 253 248 245 243 238 233 229 227
203 248 250 261 274 277 270 267 256 244 253 265 274 280 290 311 328 334 336 340 341 346 346 342 338 334 331 330 329 328 321 314 300 281 269 266 265 260 253 248 242 236 232 229
220 254 263 266 268 272 270 264 261 260 259 260 269 277 298 332 342 337 336 334 334 337 336 333 329 327 326 326 325 323 319 317 305 289 281 279 274 266 257 250 243 237 233 229
216 239 269 279 297 289 266 254 252 246 244 252 266 288 345 340 337 330 325 323 326 328 328 325 322 321 319 319 320 317 314 313 304 292 286 284 278 270 263 255 246 240 235 230
238 238 264 285 284 249 261 291 261 262 263 264 270 293 317 326 322 309 305 317 325 325 322 319 318 316 314 313 315 311 310 306 300 294 288 283 278 274 270 260 251 245 238 233
226 221 236 251 264 273 278 279 252 253 276 279 297 330 332 329 310 307 326 326 319 316 315 313 313 311 309 309 311 309 303 302 294 291 293 292 283 278 274 264 256 249 241 237
186 215 228 225 247 266 290 102 13 265 267 109 340 332 330 328 317 319 328 319 315 313 312 313 312 309 307 313 319 309 306 306 305 306 304 301 293 282 276 270 264 254 244 240
162 190 217 231 244 267 281 136 212 247 321 355 323 321 319 312 303 309 314 311 308 308 310 313 312 309 310 318 317 306 306 307 310 309 305 300 294 287 280 276 266 256 246 241
208 208 213 218 226 251 187 174 226 300 323 312 312 313 311 307 306 308 309 306 305 306 309 315 314 311 313 313 309 306 307 311 311 307 303 299 296 291 282 274 268 256 246 242
226 229 238 220 237 273 204 246 289 306 302 307 309 309 307 304 304 306 304 303 305 308 311 314 312 308 308 310 311 306 307 311 309 304 301 301 299 293 284 275 268 258 244 240
239 240 252 261 261 269 275 281 286 292 298 305 306 304 300 297 299 301 302 304 307 309 312 313 311 309 309 311 308 304 306 308 305 302 302 302 300 296 288 274 263 254 245 239
249 246 251 261 273 282 276 281 292 301 303 303 302 298 294 294 295 301 303 304 306 307 308 310 307 304 305 308 307 307 308 309 305 303 302 301 296 293 289 276 262 255 246 240
236 245 254 265 278 287 295 305 307 303 303 303 301 299 297 294 296 301 301 302 304 305 306 305 303 304 307 309 307 308 309 309 306 303 302 301 299 295 288 284 276 255 250 252